CZ-6A DEB

Satellite information

Favourite Embed

Satellite Type and Status

DEBRISIN ORBIT

Key statistics

Satellite CZ-6A DEB at a glance.

Uptime

1079

Days in orbit

Revolutions

≈ 14.2

Per day

Orbit

SSO

Sun Synchronous Orbit

Inclination

98.8

Latest

Satellite identification and parameters

Extended collection of information and parameters for CZ-6A DEB.

Object identification

Identified? True

Debris? True

Object name: CZ-6A DEB

International designator: 2022-151AFV

Object number (NORAD): 56645

Object ID (CCSDS): 56645

Country: PEOPLES REPUBLIC OF CHINA (PRC)

Current information (Y/N): Y

RCS size: SMALL

Orbital parameters

Period: 101.568 minutes

Inclination: 98.8025 deg

SMA: 7211.021 km

Apoapsis: 862.203 km

Periapsis: 803.568 km

RAAN: 299.1059 deg

Eccentricy: 0.00406567

Argument of periapsis: 304.2993 deg

Mean anomaly: 55.4336 deg

Mean motion: 14.17776064 rev/day

Mean motion (dot): 0.00002926 rev/day2

B* drag term: 0.0014446473 1/REarth

Two-line elements (TLE)

Creation date: Oct. 22, 2025, 5:40 p.m.

Reference frame: TEME

Reference center: EARTH

Epoch: Oct. 22, 2025, 6:31 a.m. UTC

TLE line 0: 0 CZ-6A DEB

TLE line 1: 1 56645U 22151AFV 25295.27197578 .00002926 00000-0 14446-2 0 9996

TLE line 2: 2 56645 98.8025 299.1059 0040657 304.2993 55.4336 14.17776064129211

Live tracking on map

Real-time ground track for satellite CZ-6A DEB.

In-orbit conjunctions

A list of the most updated potential collisions computed for object CZ-6A DEB.

Target Orbit TCA Probability of collision Miss distance Type
CZ-6A DEB LEO 2025-03-03 00:41:31 0.0002312899 177.0 (m) DEBRIS
MINOTAUR R/B SSO 2025-02-09 09:57:15 0.0001524741 520.0 (m) ROCKET BODY
FENGYUN 1C DEB SSO 2024-06-07 04:25:14 0.0001255336 73.0 (m) DEBRIS

Associated space launch

Chinese satellite reported for atmospheric/ocean/environmental/spatial parameter research purposes, details TBD.

CZ-6A DEB was lifted into orbit during the mission ‘Long March 6A | Yunhai 3’, on board a Long March 6A space rocket.

The launch took place on Nov. 11, 2022, 10:52 p.m. from Launch Complex 9A.

For more information about the launch, click the button.

Launch to space Long March 6A | Yunhai 3
Long March 6A | Yunhai 3

Agency: N/A

Status: Launch Successful

Launch date: Nov. 11, 2022, 10:52 p.m. UTC

Rocket: Long March 6A

Launch pad: Launch Complex 9A

Location: Taiyuan Satellite Launch Center, People's Republic of China

...

Latest news about this satellite

There are no fresh news available about this satellite. Check back as we update our databases every day.


Newsletter sign-up

Weekly statistics, charts and insights to help you stay on top of the space industry.